Tracking 29606 objects as of 18-Sep-2024
HD Live streaming from Space Station
objects crossing your sky now

STARLINK-2585

Track STARLINK-2585 now!
10-day predictions
STARLINK-2585 is classified as:


NORAD ID: 48382
Int'l Code: 2021-038AF
Perigee: 553.2 km
Apogee: 555.4 km
Inclination: 53.1 °
Period: 95.6 minutes
Semi major axis: 6925 km
RCS: Unknown
Launch date: May 4, 2021
Source: United States (US)
Launch site: AIR FORCE EASTERN TEST RANGE (AFETR)
Your satellite tracking list
Your tracking list is empty




NASA's NSSDC Master Catalog

Two Line Element Set (TLE):
1 48382U 21038AF  24262.18210981  .00002320  00000-0  17453-3 0  9995
2 48382  53.0526 244.5799 0001573 107.6168 252.4992 15.06413491186746
Source of the keplerian elements: AFSPC